K5WXL Weather Reports


time (UTC)temp
C
wind
direction
speed
KPH
gust
KPH
rain 1hr
cm
rain 24hr
cm
rain mn
cm
humidity
%
barometer
mb
20260506114526 9 28 20.9 29.0 0.00 0.00 0.00 72 1014.8
20260506113016 9 46 24.1 32.2 0.00 0.00 0.00 71 1014.5
20260506111519 9 32 16.1 32.2 0.00 0.00 0.00 71 1014.2
20260506110025 9 9 25.7 33.8 0.00 0.00 0.00 70 1014.4
20260506104536 9 27 20.9 35.4 0.00 0.00 0.00 69 1014.4
20260506103038 10 345 19.3 27.4 0.00 0.00 0.00 69 1014.7
20260506101516 10 28 25.7 38.6 0.00 0.00 0.00 68 1014.1
20260506100019 10 6 16.1 29.0 0.00 0.00 0.00 69 1014.1
20260506094525 10 34 24.1 33.8 0.00 0.00 0.00 68 1013.8
20260506093028 10 33 16.1 24.1 0.00 0.00 0.00 70 1014.3
20260506091528 10 32 19.3 25.7 0.00 0.00 0.00 70 1014.0
20260506090019 10 30 14.5 25.7 0.00 0.00 0.00 72 1014.0
20260506084549 10 33 12.9 29.0 0.00 0.00 0.00 73 1013.8
20260506083024 10 39 12.9 22.5 0.00 0.00 0.00 74 1013.6
20260506081536 9 25 17.7 25.7 0.00 0.00 0.00 75 1013.3
20260506073023 9 23 16.1 27.4 0.00 0.00 0.00 79 1012.4
20260506071527 9 56 17.7 30.6 0.00 0.00 0.00 80 1012.1
20260506061508 10 23 12.9 30.6 0.00 0.00 0.00 81 1012.6
20260506044518 10 32 16.1 25.7 0.00 0.00 0.00 79 1011.9
20260506043014 10 61 17.7 30.6 0.00 0.00 0.00 79 1011.9
20260506041520 10 22 17.7 30.6 0.00 0.00 0.00 79 1011.5
20260506040032 10 27 20.9 29.0 0.00 0.00 0.00 79 1011.8
20260506034508 10 34 20.9 33.8 0.00 0.00 0.00 79 1012.0
20260506033014 10 47 24.1 33.8 0.00 0.00 0.00 78 1011.5
20260506031520 10 23 17.7 32.2 0.00 0.00 0.00 78 1011.6
20260506030023 10 38 16.1 35.4 0.00 0.00 0.00 77 1011.1
20260506024524 10 31 20.9 33.8 0.00 0.00 0.00 76 1011.1
20260506023010 11 23 20.9 33.8 0.00 0.00 0.00 76 1011.1
20260506021531 11 24 19.3 30.6 0.00 0.00 0.00 76 1010.8
20260506020025 11 14 22.5 33.8 0.00 0.00 0.00 75 1010.6
20260506014525 11 18 29.0 41.8 0.00 0.00 0.00 74 1010.3
20260506013031 11 23 20.9 37.0 0.00 0.00 0.00 74 1010.0
20260506011514 11 359 22.5 33.8 0.00 0.00 0.00 73 1009.4
20260506010020 12 27 27.4 40.2 0.00 0.00 0.00 73 1009.1
20260506004527 12 6 19.3 30.6 0.00 0.00 0.00 73 1008.9
20260506003026 12 32 22.5 33.8 0.00 0.00 0.00 72 1009.2
20260506001509 12 29 24.1 33.8 0.00 0.00 0.00 72 1009.2
20260506000014 12 356 20.9 30.6 0.00 0.00 0.00 73 1009.2
20260505234503 12 29 22.5 32.2 0.00 0.00 0.00 73 1009.0
20260505233004 12 4 20.9 35.4 0.00 0.00 0.00 75 1009.0
20260505231512 12 20 20.9 37.0 0.00 0.00 0.00 76 1009.1
20260505230021 12 358 25.7 33.8 0.00 0.00 0.00 75 1008.9
20260505224517 13 342 20.9 30.6 0.00 0.00 0.00 74 1009.1
20260505223005 13 328 17.7 30.6 0.00 0.00 0.00 74 1008.9
20260505221504 13 346 20.9 32.2 0.00 0.00 0.00 75 1009.1
20260505220009 13 31 24.1 32.2 0.00 0.00 0.00 75 1008.9
20260505214517 13 13 22.5 32.2 0.00 0.00 0.00 75 1008.5
20260505213028 13 16 22.5 37.0 0.00 0.00 0.00 75 1008.8
20260505211509 14 352 22.5 29.0 0.00 0.00 0.00 74 1008.0
20260505210013 15 335 17.7 29.0 0.00 0.00 0.00 73 1008.2
20260505204514 15 343 20.9 30.6 0.00 0.00 0.00 72 1007.9
20260505203024 16 359 19.3 35.4 0.00 0.00 0.00 71 1008.0
20260505201530 16 356 22.5 35.4 0.00 0.00 0.00 70 1007.8
20260505200010 16 23 20.9 32.2 0.00 0.00 0.00 69 1007.6
20260505194509 16 356 20.9 32.2 0.00 0.00 0.00 70 1007.5
20260505193015 17 13 24.1 37.0 0.00 0.00 0.00 69 1007.6
20260505191519 16 336 20.9 40.2 0.00 0.00 0.00 72 1007.0
20260505190025 16 327 25.7 40.2 0.00 0.00 0.00 72 1006.9
20260505184508 17 20 27.4 40.2 0.00 0.00 0.00 70 1007.1
20260505183018 17 336 24.1 32.2 0.00 0.00 0.00 69 1007.0
20260505181520 17 18 24.1 35.4 0.00 0.00 0.00 71 1006.5
20260505180021 17 6 27.4 40.2 0.00 0.00 0.00 71 1007.1
20260505174529 18 309 29.0 37.0 0.00 0.00 0.00 71 1006.7
20260505173029 18 338 27.4 38.6 0.00 0.00 0.00 71 1005.9
20260505171515 18 1 24.1 32.2 0.00 0.00 0.00 72 1005.1
20260505170020 18 360 24.1 38.6 0.00 0.00 0.00 73 1005.2
20260505164523 18 13 22.5 41.8 0.00 0.00 0.00 72 1004.8
20260505163032 19 345 29.0 45.1 0.00 0.00 0.00 72 1004.4
20260505161525 20 315 24.1 45.1 0.00 0.00 0.00 72 1004.2
20260505153024 22 323 19.3 32.2 0.00 0.00 0.00 52 1003.3
20260505151531 23 283 20.9 32.2 0.00 0.00 0.00 59 1002.7
20260505124528 19 202 6.4 8.0 0.00 0.00 0.00 82 1001.3
20260505123026 19 221 8.0 11.3 0.00 0.00 0.00 82 1001.2
20260505121521 19 229 6.4 14.5 0.00 0.00 0.00 82 1001.1
20260505120006 19 207 9.7 16.1 0.00 0.00 0.00 82 1000.9